Location: Clair
(33.8067°N, 117.9845°W)
Time: 17:18:56
(UTC+00:00)

Cosmos 783 Rocket - Pass Details

Date: 14 February 2026
Orbit: 754 x 775 km, 74.1° (Epoch: 8 March)

Event Time Altitude Azimuth Distance (km) Brightness Sun altitude
Rises 13:42:35 0° 339° (NNW) 3,216 7.4 -12.0°
Reaches altitude 10° 13:44:59 10° 336° (NNW) 2,286 6.7 -11.5°
Maximum altitude 13:50:05 64° 256° (WSW) 833 4.5 -10.4°
Drops below altitude 10° 13:55:10 10° 175° (S) 2,268 7.1 -9.4°
Sets 13:57:32 0° 173° (S) 3,190 7.9 -8.9°
